User: anonymous
Location: Meriden
(44.0740°N, 93.3870°W)
Time: 09:06:39
(UTC-05:00)
Language:

Hamsat - Orbit

View from above orbital plane
View from above orbital plane
View from above satellite
View from above satellite

Ground track
Ground track

The orbit data is extracted from the following two-line orbital elements,

1 28650U 05017B   14263.59304243  .00002544  00000-0  29696-3 0  8573
2 28650 097.5630 263.8202 0024620 199.1917 160.8374 14.85783426507398
Epoch (UTC): 20 September 2014 14:13:58
Eccentricity: 0.0024620
inclination: 97.5630°
perigee height: 594 km
apogee height: 628 km
right ascension of ascending node: 263.8202°
argument of perigee: 199.1917°
revolutions per day: 14.85783426
mean anomaly at epoch: 160.8374°
orbit number at epoch: 50739

The dashed part of the orbit path shows where the satellite is in the earth's shadow,  

DLR